Time,TemperatureF,DewpointF,PressureIn,WindDirection,WindDirectionDegrees,WindSpeedMPH,WindSpeedGustMPH,Humidity,HourlyPrecipIn,Conditions,Clouds,dailyrainin,SolarRadiationWatts/m^2,SoftwareType,DateUTC
2014-08-27 00:02:00,64.2,57.9,29.99,WNW,299,0.0,0.0,80,0.00,CLR,,0.00,0.0,WeatherDisplay:10.37,2014-08-27 07:02:00,
2014-08-27 00:07:00,64.2,57.9,29.99,WNW,299,0.0,0.0,80,0.00,CLR,,0.00,0.0,WeatherDisplay:10.37,2014-08-27 07:07:00,
2014-08-27 00:12:00,64.2,57.9,29.99,WNW,299,0.0,0.0,80,0.00,CLR,,0.00,0.0,WeatherDisplay:10.37,2014-08-27 07:12:00,
2014-08-27 00:17:00,64.0,57.7,29.99,WNW,299,0.0,0.0,80,0.00,CLR,,0.00,0.0,WeatherDisplay:10.37,2014-08-27 07:17:00,
2014-08-27 00:22:00,64.0,57.7,29.99,WNW,299,0.0,0.0,80,0.00,CLR,,0.00,0.0,WeatherDisplay:10.37,2014-08-27 07:22:00,
2014-08-27 00:27:00,64.0,58.1,29.99,WNW,299,0.0,0.0,81,0.00,CLR,,0.00,0.0,WeatherDisplay:10.37,2014-08-27 07:27:00,
2014-08-27 00:32:00,63.9,58.0,30.00,WNW,299,0.0,0.0,81,0.00,CLR,,0.00,0.0,WeatherDisplay:10.37,2014-08-27 07:32:00,
2014-08-27 00:37:00,63.9,58.0,30.00,WNW,299,0.0,0.0,81,0.00,CLR,,0.00,0.0,WeatherDisplay:10.37,2014-08-27 07:37:00,
2014-08-27 00:42:00,63.7,57.8,30.00,WNW,299,0.0,0.0,81,0.00,CLR,,0.00,0.0,WeatherDisplay:10.37,2014-08-27 07:42:00,
2014-08-27 00:47:00,63.7,57.8,29.99,WNW,299,0.0,0.0,81,0.00,CLR,,0.00,0.0,WeatherDisplay:10.37,2014-08-27 07:47:00,
2014-08-27 00:52:00,63.5,57.9,29.99,WNW,299,0.0,0.0,82,0.00,CLR,,0.00,0.0,WeatherDisplay:10.37,2014-08-27 07:52:00,
2014-08-27 00:57:00,63.5,57.9,29.99,WNW,299,0.0,0.0,82,0.00,CLR,,0.00,0.0,WeatherDisplay:10.37,2014-08-27 07:57:00,
2014-08-27 01:02:00,63.5,57.9,30.00,WNW,299,0.0,0.0,82,0.00,CLR,,0.00,0.0,WeatherDisplay:10.37,2014-08-27 08:02:00,
2014-08-27 01:07:00,63.4,57.8,30.00,WNW,299,0.0,0.0,82,0.00,CLR,,0.00,0.0,WeatherDisplay:10.37,2014-08-27 08:07:00,
2014-08-27 01:12:00,63.2,57.6,30.00,WNW,299,0.0,0.0,82,0.00,CLR,,0.00,0.0,WeatherDisplay:10.37,2014-08-27 08:12:00,
2014-08-27 01:17:00,63.2,57.9,30.00,WNW,299,0.0,0.0,83,0.00,CLR,,0.00,0.0,WeatherDisplay:10.37,2014-08-27 08:17:00,
2014-08-27 01:22:00,63.2,57.9,30.00,WNW,299,0.0,0.0,83,0.00,CLR,,0.00,0.0,WeatherDisplay:10.37,2014-08-27 08:22:00,
2014-08-27 01:27:00,63.2,57.9,30.00,WNW,299,0.0,0.0,83,0.00,CLR,,0.00,0.0,WeatherDisplay:10.37,2014-08-27 08:27:00,
2014-08-27 01:32:00,63.2,57.9,30.00,WNW,299,0.0,0.0,83,0.00,CLR,,0.00,0.0,WeatherDisplay:10.37,2014-08-27 08:32:00,
2014-08-27 01:37:00,63.2,57.9,30.00,WNW,299,0.0,0.0,83,0.00,CLR,,0.00,0.0,WeatherDisplay:10.37,2014-08-27 08:37:00,
2014-08-27 01:42:00,63.2,57.9,30.00,WNW,299,1.2,0.0,83,0.00,CLR,,0.00,0.0,WeatherDisplay:10.37,2014-08-27 08:42:00,
2014-08-27 01:47:00,63.1,57.9,30.00,WNW,299,0.0,0.0,83,0.00,CLR,,0.00,0.0,WeatherDisplay:10.37,2014-08-27 08:47:00,
2014-08-27 01:52:00,62.9,57.7,30.00,WNW,299,0.0,0.0,83,0.00,CLR,,0.00,0.0,WeatherDisplay:10.37,2014-08-27 08:52:00,
2014-08-27 01:57:00,62.7,57.5,30.00,WNW,299,0.0,0.0,83,0.00,CLR,,0.00,0.0,WeatherDisplay:10.37,2014-08-27 08:57:00,
2014-08-27 02:02:00,62.6,57.4,30.00,WNW,299,0.0,0.0,83,0.00,CLR,,0.00,0.0,WeatherDisplay:10.37,2014-08-27 09:02:00,
2014-08-27 02:07:00,62.4,57.2,30.00,WNW,299,0.0,0.0,83,0.00,CLR,,0.00,0.0,WeatherDisplay:10.37,2014-08-27 09:07:00,
2014-08-27 02:12:00,62.4,57.5,30.00,WNW,299,0.0,0.0,84,0.00,CLR,,0.00,0.0,WeatherDisplay:10.37,2014-08-27 09:12:00,
2014-08-27 02:17:00,62.4,57.5,30.00,WNW,299,0.0,0.0,84,0.00,CLR,,0.00,0.0,WeatherDisplay:10.37,2014-08-27 09:17:00,
2014-08-27 02:22:00,62.4,57.5,30.00,WNW,299,0.0,0.0,84,0.00,CLR,,0.00,0.0,WeatherDisplay:10.37,2014-08-27 09:22:00,
2014-08-27 02:27:00,62.4,57.5,30.00,WNW,299,0.0,0.0,84,0.00,CLR,,0.00,0.0,WeatherDisplay:10.37,2014-08-27 09:27:00,
2014-08-27 02:32:00,62.3,57.4,30.00,WNW,299,0.0,0.0,84,0.00,CLR,,0.00,0.0,WeatherDisplay:10.37,2014-08-27 09:32:00,
2014-08-27 02:37:00,62.1,57.2,30.00,WNW,299,0.0,0.0,84,0.00,CLR,,0.00,0.0,WeatherDisplay:10.37,2014-08-27 09:37:00,
2014-08-27 02:42:00,62.0,57.1,30.00,WNW,299,0.0,0.0,84,0.00,CLR,,0.00,0.0,WeatherDisplay:10.37,2014-08-27 09:42:00,
2014-08-27 02:47:00,61.8,56.9,30.00,WNW,299,0.0,0.0,84,0.00,CLR,,0.00,0.0,WeatherDisplay:10.37,2014-08-27 09:47:00,
2014-08-27 02:52:00,61.6,56.7,30.00,WNW,299,0.0,0.0,84,0.00,CLR,,0.00,0.0,WeatherDisplay:10.37,2014-08-27 09:52:00,
2014-08-27 02:57:00,61.5,56.6,30.00,WNW,299,0.0,0.0,84,0.00,CLR,,0.00,0.0,WeatherDisplay:10.37,2014-08-27 09:57:00,
2014-08-27 03:02:00,61.3,56.4,30.00,WNW,299,0.0,0.0,84,0.00,CLR,,0.00,0.0,WeatherDisplay:10.37,2014-08-27 10:02:00,
2014-08-27 03:07:00,61.3,56.4,30.00,WNW,299,0.0,0.0,84,0.00,CLR,,0.00,0.0,WeatherDisplay:10.37,2014-08-27 10:07:00,
2014-08-27 03:12:00,61.3,56.4,30.00,WNW,299,0.0,0.0,84,0.00,CLR,,0.00,0.0,WeatherDisplay:10.37,2014-08-27 10:12:00,
2014-08-27 03:17:00,61.3,56.4,30.00,WNW,299,0.0,0.0,84,0.00,CLR,,0.00,0.0,WeatherDisplay:10.37,2014-08-27 10:17:00,
2014-08-27 03:22:00,61.3,56.4,30.00,WNW,299,0.0,0.0,84,0.00,CLR,,0.00,0.0,WeatherDisplay:10.37,2014-08-27 10:22:00,
2014-08-27 03:27:00,61.5,56.9,30.00,WNW,299,0.0,0.0,85,0.00,CLR,,0.00,0.0,WeatherDisplay:10.37,2014-08-27 10:27:00,
2014-08-27 03:32:00,61.5,56.6,30.01,WNW,299,0.0,0.0,84,0.00,CLR,,0.00,0.0,WeatherDisplay:10.37,2014-08-27 10:32:00,
2014-08-27 03:37:00,61.5,56.6,30.01,WNW,299,0.0,0.0,84,0.00,CLR,,0.00,0.0,WeatherDisplay:10.37,2014-08-27 10:37:00,
2014-08-27 03:42:00,61.3,56.8,30.01,WNW,299,0.0,0.0,85,0.00,CLR,,0.00,0.0,WeatherDisplay:10.37,2014-08-27 10:42:00,
2014-08-27 03:47:00,61.3,56.8,30.00,WNW,299,0.0,0.0,85,0.00,CLR,,0.00,0.0,WeatherDisplay:10.37,2014-08-27 10:47:00,
2014-08-27 03:52:00,61.6,57.0,30.00,WNW,299,0.0,0.0,85,0.00,CLR,,0.00,0.0,WeatherDisplay:10.37,2014-08-27 10:52:00,
2014-08-27 03:57:00,61.6,57.0,30.00,WNW,299,0.0,0.0,85,0.00,CLR,,0.00,0.0,WeatherDisplay:10.37,2014-08-27 10:57:00,
2014-08-27 04:02:00,61.8,57.2,30.00,WNW,299,0.0,0.0,85,0.00,CLR,,0.00,0.0,WeatherDisplay:10.37,2014-08-27 11:02:00,
2014-08-27 04:07:00,61.6,57.0,30.00,WNW,299,0.0,0.0,85,0.00,CLR,,0.00,0.0,WeatherDisplay:10.37,2014-08-27 11:07:00,
2014-08-27 04:12:00,61.6,57.0,30.00,WNW,299,0.0,0.0,85,0.00,CLR,,0.00,0.0,WeatherDisplay:10.37,2014-08-27 11:12:00,
2014-08-27 04:17:00,61.6,57.0,30.00,WNW,299,0.0,0.0,85,0.00,CLR,,0.00,0.0,WeatherDisplay:10.37,2014-08-27 11:17:00,
2014-08-27 04:22:00,61.6,57.0,30.00,WNW,299,0.0,0.0,85,0.00,CLR,,0.00,0.0,WeatherDisplay:10.37,2014-08-27 11:22:00,
2014-08-27 04:28:00,61.6,57.0,30.00,WNW,299,0.0,0.1,85,0.00,CLR,,0.00,0.0,WeatherDisplay:10.37,2014-08-27 11:28:00,
2014-08-27 04:33:00,61.8,57.2,30.00,WNW,299,0.0,0.0,85,0.00,CLR,,0.00,0.0,WeatherDisplay:10.37,2014-08-27 11:33:00,
2014-08-27 04:38:00,61.8,57.2,30.00,WNW,299,0.0,0.0,85,0.00,CLR,,0.00,0.0,WeatherDisplay:10.37,2014-08-27 11:38:00,
2014-08-27 04:43:00,62.0,57.4,30.00,WNW,298,0.0,0.0,85,0.00,CLR,,0.00,0.0,WeatherDisplay:10.37,2014-08-27 11:43:00,
2014-08-27 04:48:00,62.0,57.4,30.00,WNW,299,0.0,0.0,85,0.00,CLR,,0.00,0.0,WeatherDisplay:10.37,2014-08-27 11:48:00,
2014-08-27 04:53:00,62.0,57.4,30.00,WNW,299,0.0,0.3,85,0.00,CLR,,0.00,0.0,WeatherDisplay:10.37,2014-08-27 11:53:00,
2014-08-27 04:58:00,62.0,57.4,30.00,WNW,299,0.0,0.0,85,0.00,CLR,,0.00,0.0,WeatherDisplay:10.37,2014-08-27 11:58:00,
2014-08-27 05:03:00,61.8,57.2,30.01,WNW,299,0.0,0.0,85,0.00,CLR,,0.00,0.0,WeatherDisplay:10.37,2014-08-27 12:03:00,
2014-08-27 05:08:00,61.8,57.2,30.01,WNW,299,1.2,0.0,85,0.00,CLR,,0.00,0.0,WeatherDisplay:10.37,2014-08-27 12:08:00,
2014-08-27 05:13:00,62.0,57.4,30.01,WNW,299,0.0,0.0,85,0.00,CLR,,0.00,0.0,WeatherDisplay:10.37,2014-08-27 12:13:00,
2014-08-27 05:18:00,62.0,57.8,30.01,WNW,299,1.2,1.2,86,0.00,CLR,,0.00,0.0,WeatherDisplay:10.37,2014-08-27 12:18:00,
2014-08-27 05:23:00,62.0,57.8,30.01,WNW,299,0.0,0.0,86,0.00,CLR,,0.00,0.0,WeatherDisplay:10.37,2014-08-27 12:23:00,
2014-08-27 05:28:00,61.8,57.6,30.01,WNW,299,0.0,0.0,86,0.00,CLR,,0.00,0.0,WeatherDisplay:10.37,2014-08-27 12:28:00,
2014-08-27 05:33:00,61.8,57.6,30.01,WNW,299,0.0,0.0,86,0.00,CLR,,0.00,0.0,WeatherDisplay:10.37,2014-08-27 12:33:00,
2014-08-27 05:38:00,61.6,57.4,30.01,WNW,299,1.2,1.2,86,0.00,CLR,,0.00,0.0,WeatherDisplay:10.37,2014-08-27 12:38:00,
2014-08-27 05:43:00,61.6,57.4,30.01,WNW,299,0.0,0.0,86,0.00,CLR,,0.00,0.0,WeatherDisplay:10.37,2014-08-27 12:43:00,
2014-08-27 05:48:00,61.6,57.7,30.02,WNW,299,0.0,0.0,87,0.00,CLR,,0.00,0.0,WeatherDisplay:10.37,2014-08-27 12:48:00,
2014-08-27 05:53:00,61.6,57.4,30.02,WNW,299,0.0,0.0,86,0.00,CLR,,0.00,0.0,WeatherDisplay:10.37,2014-08-27 12:53:00,
2014-08-27 05:58:00,61.6,57.7,30.02,WNW,299,0.0,0.0,87,0.00,CLR,,0.00,0.0,WeatherDisplay:10.37,2014-08-27 12:58:00,
2014-08-27 06:03:00,61.6,57.7,30.02,WNW,299,0.0,0.0,87,0.00,CLR,,0.00,0.0,WeatherDisplay:10.37,2014-08-27 13:03:00,
2014-08-27 06:08:00,61.6,57.7,30.02,WNW,299,0.0,0.0,87,0.00,CLR,,0.00,0.0,WeatherDisplay:10.37,2014-08-27 13:08:00,
2014-08-27 06:13:00,61.6,57.7,30.02,WNW,299,0.0,0.0,87,0.00,CLR,,0.00,0.0,WeatherDisplay:10.37,2014-08-27 13:13:00,
2014-08-27 06:18:00,61.6,57.7,30.02,WNW,299,0.0,0.0,87,0.00,CLR,,0.00,0.0,WeatherDisplay:10.37,2014-08-27 13:18:00,
2014-08-27 06:23:00,61.6,57.7,30.02,WNW,299,0.0,0.0,87,0.00,CLR,,0.00,0.0,WeatherDisplay:10.37,2014-08-27 13:23:00,
2014-08-27 06:28:00,61.5,57.6,30.02,WNW,299,0.0,0.0,87,0.00,CLR,,0.00,0.0,WeatherDisplay:10.37,2014-08-27 13:28:00,
2014-08-27 06:33:00,61.3,57.4,30.02,WNW,299,0.0,0.0,87,0.00,CLR,,0.00,0.0,WeatherDisplay:10.37,2014-08-27 13:33:00,
2014-08-27 06:38:00,61.3,57.7,30.02,NW,307,0.0,0.0,88,0.00,CLR,,0.00,5.0,WeatherDisplay:10.37,2014-08-27 13:38:00,
2014-08-27 06:43:00,61.5,57.9,30.02,NW,323,0.0,0.0,88,0.00,CLR,,0.00,7.0,WeatherDisplay:10.37,2014-08-27 13:43:00,
2014-08-27 06:48:00,61.5,57.9,30.03,NW,323,0.0,0.0,88,0.00,CLR,,0.00,11.0,WeatherDisplay:10.37,2014-08-27 13:48:00,
2014-08-27 06:53:00,61.5,57.9,30.03,NNW,343,0.0,0.0,88,0.00,CLR,,0.00,14.0,WeatherDisplay:10.37,2014-08-27 13:53:00,
2014-08-27 06:58:00,61.5,57.9,30.03,NNW,343,0.0,0.0,88,0.00,CLR,,0.00,19.0,WeatherDisplay:10.37,2014-08-27 13:58:00,
2014-08-27 07:03:00,61.5,57.9,30.03,NNW,344,0.0,0.0,88,0.00,CLR,,0.00,25.0,WeatherDisplay:10.37,2014-08-27 14:03:00,
2014-08-27 07:08:00,61.5,57.9,30.03,NNW,344,0.0,0.0,88,0.00,CLR,,0.00,33.0,WeatherDisplay:10.37,2014-08-27 14:08:00,
2014-08-27 07:13:00,61.5,57.9,30.03,NNW,344,0.0,0.0,88,0.00,CLR,,0.00,44.0,WeatherDisplay:10.37,2014-08-27 14:13:00,
2014-08-27 07:18:00,61.6,57.7,30.03,NNW,344,0.0,0.0,87,0.00,CLR,,0.00,53.0,WeatherDisplay:10.37,2014-08-27 14:18:00,
2014-08-27 07:23:00,61.8,57.6,30.03,NNW,344,0.0,0.0,86,0.00,CLR,,0.00,63.0,WeatherDisplay:10.37,2014-08-27 14:23:00,
2014-08-27 07:28:00,62.0,57.8,30.03,NNW,345,0.0,0.0,86,0.00,CLR,,0.00,76.0,WeatherDisplay:10.37,2014-08-27 14:28:00,
2014-08-27 07:33:00,62.3,57.7,30.04,NNW,344,0.0,0.0,85,0.00,CLR,,0.00,88.0,WeatherDisplay:10.37,2014-08-27 14:33:00,
2014-08-27 07:38:00,62.7,57.8,30.04,NNW,344,0.0,0.0,84,0.00,CLR,,0.00,104.0,WeatherDisplay:10.37,2014-08-27 14:38:00,
2014-08-27 07:43:00,63.1,57.9,30.04,NNW,344,0.0,0.0,83,0.00,CLR,,0.00,120.0,WeatherDisplay:10.37,2014-08-27 14:43:00,
2014-08-27 07:48:00,63.5,58.2,30.04,NNW,344,0.0,0.0,83,0.00,CLR,,0.00,137.0,WeatherDisplay:10.37,2014-08-27 14:48:00,
2014-08-27 07:53:00,64.2,58.6,30.04,NNW,344,1.2,0.0,82,0.00,CLR,,0.00,155.0,WeatherDisplay:10.37,2014-08-27 14:53:00,
2014-08-27 07:58:00,64.8,58.8,30.04,NNW,344,0.0,0.0,81,0.00,CLR,,0.00,174.0,WeatherDisplay:10.37,2014-08-27 14:58:00,
2014-08-27 08:03:00,65.5,59.2,30.04,NNW,344,0.0,0.0,80,0.00,CLR,,0.00,195.0,WeatherDisplay:10.37,2014-08-27 15:03:00,
2014-08-27 08:08:00,65.8,59.1,30.04,NNW,344,1.2,0.0,79,0.00,CLR,,0.00,214.0,WeatherDisplay:10.37,2014-08-27 15:08:00,
2014-08-27 08:13:00,66.1,59.0,30.04,NNW,344,0.0,0.0,78,0.00,CLR,,0.00,234.0,WeatherDisplay:10.37,2014-08-27 15:13:00,
2014-08-27 08:18:00,66.0,58.6,30.04,NNW,344,0.0,0.0,77,0.00,CLR,,0.00,253.0,WeatherDisplay:10.37,2014-08-27 15:18:00,
2014-08-27 08:23:00,66.1,59.0,30.04,NNW,344,1.2,1.2,78,0.00,CLR,,0.00,269.0,WeatherDisplay:10.37,2014-08-27 15:23:00,
2014-08-27 08:28:00,66.3,59.6,30.04,NNW,344,0.0,0.0,79,0.00,CLR,,0.00,287.0,WeatherDisplay:10.37,2014-08-27 15:28:00,
2014-08-27 08:33:00,66.1,59.0,30.04,NNW,344,3.5,3.5,78,0.00,CLR,,0.00,302.0,WeatherDisplay:10.37,2014-08-27 15:33:00,
2014-08-27 08:38:00,65.8,59.1,30.04,NNW,344,1.2,0.0,79,0.00,CLR,,0.00,318.0,WeatherDisplay:10.37,2014-08-27 15:38:00,
2014-08-27 08:43:00,66.1,59.4,30.04,NNW,344,1.2,0.0,79,0.00,CLR,,0.00,334.0,WeatherDisplay:10.37,2014-08-27 15:43:00,
2014-08-27 08:48:00,66.0,59.7,30.05,NNW,344,0.0,0.0,80,0.00,CLR,,0.00,352.0,WeatherDisplay:10.37,2014-08-27 15:48:00,
2014-08-27 08:53:00,66.3,59.9,30.05,NNW,344,0.0,0.0,80,0.00,CLR,,0.00,367.0,WeatherDisplay:10.37,2014-08-27 15:53:00,
2014-08-27 08:58:00,66.8,60.1,30.05,NNW,344,0.0,0.0,79,0.00,CLR,,0.00,383.0,WeatherDisplay:10.37,2014-08-27 15:58:00,
2014-08-27 09:03:00,66.9,59.8,30.04,NNW,344,3.5,0.0,78,0.00,CLR,,0.00,403.0,WeatherDisplay:10.37,2014-08-27 16:03:00,
2014-08-27 09:08:00,67.1,59.6,30.04,NNW,344,2.3,2.3,77,0.00,CLR,,0.00,415.0,WeatherDisplay:10.37,2014-08-27 16:08:00,
2014-08-27 09:13:00,67.1,60.0,30.04,NNW,344,0.0,0.0,78,0.00,CLR,,0.00,431.0,WeatherDisplay:10.37,2014-08-27 16:13:00,
2014-08-27 09:18:00,67.3,59.8,30.05,NNW,344,1.2,0.0,77,0.00,CLR,,0.00,448.0,WeatherDisplay:10.37,2014-08-27 16:18:00,
2014-08-27 09:23:00,67.4,59.9,30.05,West,280,3.5,0.0,77,0.00,CLR,,0.00,466.0,WeatherDisplay:10.37,2014-08-27 16:23:00,
2014-08-27 09:28:00,67.8,60.3,30.05,West,279,3.5,3.5,77,0.00,CLR,,0.00,478.0,WeatherDisplay:10.37,2014-08-27 16:28:00,
2014-08-27 09:33:00,67.6,59.8,30.05,West,277,3.5,3.5,76,0.00,CLR,,0.00,497.0,WeatherDisplay:10.37,2014-08-27 16:33:00,
2014-08-27 09:38:00,67.8,60.0,30.05,West,277,2.3,2.3,76,0.00,CLR,,0.00,510.0,WeatherDisplay:10.37,2014-08-27 16:38:00,
2014-08-27 09:43:00,68.1,59.9,30.05,West,276,3.5,3.5,75,0.00,CLR,,0.00,522.0,WeatherDisplay:10.37,2014-08-27 16:43:00,
2014-08-27 09:48:00,68.1,59.9,30.05,West,276,4.0,4.0,75,0.00,CLR,,0.00,536.0,WeatherDisplay:10.37,2014-08-27 16:48:00,
2014-08-27 09:53:00,68.1,59.9,30.05,West,277,5.8,5.8,75,0.00,CLR,,0.00,550.0,WeatherDisplay:10.37,2014-08-27 16:53:00,
2014-08-27 09:58:00,68.3,60.1,30.05,West,276,4.6,4.6,75,0.00,CLR,,0.00,564.0,WeatherDisplay:10.37,2014-08-27 16:58:00,
2014-08-27 10:03:00,68.6,60.4,30.05,West,276,6.9,6.9,75,0.00,CLR,,0.00,580.0,WeatherDisplay:10.37,2014-08-27 17:03:00,
2014-08-27 10:08:00,68.6,60.4,30.05,West,275,6.9,6.9,75,0.00,CLR,,0.00,589.0,WeatherDisplay:10.37,2014-08-27 17:08:00,
2014-08-27 10:13:00,68.9,60.3,30.05,West,273,10.0,10.0,74,0.00,CLR,,0.00,606.0,WeatherDisplay:10.37,2014-08-27 17:13:00,
2014-08-27 10:18:00,68.9,60.6,30.05,West,273,5.8,5.8,75,0.00,CLR,,0.00,621.0,WeatherDisplay:10.37,2014-08-27 17:18:00,
2014-08-27 10:23:00,69.3,60.7,30.05,West,272,4.0,4.0,74,0.00,CLR,,0.00,631.0,WeatherDisplay:10.37,2014-08-27 17:23:00,
2014-08-27 10:28:00,69.4,60.8,30.05,West,274,6.0,6.0,74,0.00,CLR,,0.00,645.0,WeatherDisplay:10.37,2014-08-27 17:28:00,
2014-08-27 10:33:00,69.6,60.9,30.05,West,278,4.0,4.0,74,0.00,CLR,,0.00,656.0,WeatherDisplay:10.37,2014-08-27 17:33:00,
2014-08-27 10:38:00,69.9,61.2,30.05,West,277,7.0,7.0,74,0.00,CLR,,0.00,668.0,WeatherDisplay:10.37,2014-08-27 17:38:00,
2014-08-27 10:43:00,69.9,62.0,30.05,West,262,5.8,5.8,76,0.00,CLR,,0.00,682.0,WeatherDisplay:10.37,2014-08-27 17:43:00,
2014-08-27 10:48:00,70.4,61.3,30.05,West,260,5.0,5.0,73,0.00,CLR,,0.00,691.0,WeatherDisplay:10.37,2014-08-27 17:48:00,
2014-08-27 10:53:00,70.6,60.7,30.05,West,260,3.5,3.5,71,0.00,CLR,,0.00,705.0,WeatherDisplay:10.37,2014-08-27 17:53:00,
2014-08-27 10:58:00,70.9,60.6,30.05,West,263,7.0,7.0,70,0.00,CLR,,0.00,714.0,WeatherDisplay:10.37,2014-08-27 17:58:00,
2014-08-27 11:03:00,71.1,60.8,30.05,West,260,5.8,5.8,70,0.00,CLR,,0.00,722.0,WeatherDisplay:10.37,2014-08-27 18:03:00,
2014-08-27 11:08:00,71.3,61.0,30.05,West,261,9.2,9.2,70,0.00,CLR,,0.00,733.0,WeatherDisplay:10.37,2014-08-27 18:08:00,
2014-08-27 11:13:00,71.1,60.8,30.05,West,263,8.1,8.1,70,0.00,CLR,,0.00,744.0,WeatherDisplay:10.37,2014-08-27 18:13:00,
2014-08-27 11:18:00,71.5,61.2,30.04,West,262,8.0,8.0,70,0.00,CLR,,0.00,754.0,WeatherDisplay:10.37,2014-08-27 18:18:00,
2014-08-27 11:23:00,71.5,61.2,30.04,West,266,10.0,10.0,70,0.00,CLR,,0.00,765.0,WeatherDisplay:10.37,2014-08-27 18:23:00,
2014-08-27 11:28:00,71.3,61.0,30.04,West,281,11.5,11.5,70,0.00,CLR,,0.00,772.0,WeatherDisplay:10.37,2014-08-27 18:28:00,
2014-08-27 11:33:00,71.6,60.1,30.04,SW,236,11.5,11.5,67,0.00,CLR,,0.00,780.0,WeatherDisplay:10.37,2014-08-27 18:33:00,
2014-08-27 11:38:00,71.6,60.1,30.04,West,261,9.2,9.2,67,0.00,CLR,,0.00,788.0,WeatherDisplay:10.37,2014-08-27 18:38:00,
2014-08-27 11:43:00,72.0,59.6,30.04,WSW,256,9.2,9.2,65,0.00,CLR,,0.00,796.0,WeatherDisplay:10.37,2014-08-27 18:43:00,
2014-08-27 11:48:00,72.5,59.2,30.04,West,274,10.4,10.4,63,0.00,CLR,,0.00,805.0,WeatherDisplay:10.37,2014-08-27 18:48:00,
2014-08-27 11:53:00,72.8,59.0,30.04,West,277,9.2,9.2,62,0.00,CLR,,0.00,814.0,WeatherDisplay:10.37,2014-08-27 18:53:00,
2014-08-27 11:58:00,73.2,58.9,30.04,West,277,9.0,9.0,61,0.00,CLR,,0.00,821.0,WeatherDisplay:10.37,2014-08-27 18:58:00,